Weather History for KVTA - January, 2013

Change the Weather History Date:

Thursday, January 3, 2013

  Actual Average (KCMH) Record (KCMH)
Temperature  
Mean Temperature 16 °F 30 °F  
Max Temperature 30 °F 37 °F 64 °F (1950)
Min Temperature 1 °F 23 °F -20 °F (1879)
Degree Days  
Heating Degree Days 50 35  
Month to date heating degree days 105  
Since 1 July heating degree days 2096  
Cooling Degree Days 0 0  
Month to date cooling degree days 0  
Year to date cooling degree days 0  
Moisture  
Dew Point 10 °F    
Average Humidity 72    
Maximum Humidity 92    
Minimum Humidity 52    
Precipitation  
Precipitation 0.00 in 0.10 in 2.41 in (2000)
Month to date precipitation 0.29  
Year to date precipitation 0.29  
Snow  
Snow 0.00 in 0.30 in 5.00 in (1911)
Month to date snowfall 0.8  
Since 1 July snowfall 6.9  
Snow Depth -    
Sea Level Pressure  
Sea Level Pressure 30.25 in    
Wind  
Wind Speed 3 mph (WSW)    
Max Wind Speed 13 mph    
Max Gust Speed 18 mph    
Visibility 8 miles    
Events      
T = Trace of Precipitation, MM = Missing Value Source: NWS Daily Summary

Daily Weather History Graph

Daily Weather History Graph

Search for Another Location

Airport or City:

Trip Planner

Search our weather history database for the weather conditions in past years. The results will help you decide how hot, cold, wet, or windy it might be!

Date:

Astronomy

Jan. 03, 2013 Rise Set
Actual Time 7:52 AM EST 5:17 PM EST
Civil Twilight 7:21 AM EST 5:47 PM EST
Nautical Twilight 6:47 AM EST 6:21 PM EST
Astronomical Twilight 6:14 AM EST 6:54 PM EST
Moon 11:51 PM EST (1/3) 11:03 AM EST (1/3)
Length of Visible Light 10h 25m
Length of Day
9h 25m
Waning Gibbous, 65% of the Moon is Illuminated
Jan 3
Waning Gibbous
Jan 4
Last Quarter
Jan 11
New
Jan 18
First Quarter
Jan 26
Full

Hourly Weather History & Observations

Time (EST) Temp. Windchill Dew Point Humidity Pressure Visibility Wind Dir Wind Speed Gust Speed Precip Events Conditions
12:54 AM 5.0 °F - 3.0 °F 92% 30.25 in 3.0 mi Calm Calm - N/A   Clear
1:54 AM 7.0 °F - 3.9 °F 87% 30.25 in 4.0 mi Calm Calm - N/A   Clear
2:54 AM 5.0 °F - 1.0 °F 84% 30.25 in 5.0 mi Calm Calm - N/A   Clear
3:54 AM 5.0 °F - -0.0 °F 80% 30.24 in 6.0 mi Calm Calm - N/A   Haze
4:54 AM 1.9 °F - -2.0 °F 83% 30.24 in 6.0 mi Calm Calm - N/A   Clear
5:54 AM 1.9 °F - -2.0 °F 83% 30.25 in 6.0 mi Calm Calm - N/A   Clear
6:54 AM 1.9 °F - -2.9 °F 80% 30.27 in 6.0 mi Calm Calm - N/A   Haze
7:46 AM 1.4 °F - -2.2 °F 85% 30.21 in 6.0 mi Calm Calm - N/A   Scattered Clouds
7:54 AM 1.0 °F - -4.0 °F 79% 30.27 in 5.0 mi Calm Calm - N/A   Haze
8:54 AM 5.0 °F - 1.9 °F 87% 30.27 in 5.0 mi Calm Calm - N/A   Partly Cloudy
9:54 AM 12.9 °F - 10.0 °F 88% 30.26 in 4.0 mi Calm Calm - N/A   Clear
10:54 AM 19.9 °F 14.9 °F 14.0 °F 78% 30.26 in 9.0 mi South 3.5 mph - N/A   Clear
11:54 AM 26.1 °F 17.6 °F 12.9 °F 58% 30.23 in 10.0 mi WSW 8.1 mph - N/A   Clear
12:54 PM 28.0 °F 18.6 °F 14.0 °F 56% 30.22 in 10.0 mi SW 10.4 mph - N/A   Clear
1:54 PM 28.9 °F 19.2 °F 14.0 °F 54% 30.21 in 10.0 mi WSW 11.5 mph - N/A   Clear
2:54 PM 30.9 °F 22.8 °F 15.1 °F 52% 30.21 in 10.0 mi SW 9.2 mph - N/A   Mostly Cloudy
3:54 PM 30.9 °F 21.2 °F 16.0 °F 54% 30.23 in 10.0 mi WSW 12.7 mph - N/A   Scattered Clouds
4:54 PM 28.9 °F 21.9 °F 16.0 °F 58% 30.25 in 10.0 mi SW 6.9 mph - N/A   Mostly Cloudy
5:54 PM 30.0 °F 23.2 °F 19.0 °F 64% 30.26 in 10.0 mi SW 6.9 mph - N/A   Overcast
6:54 PM 28.9 °F 19.2 °F 19.9 °F 69% 30.27 in 10.0 mi WSW 11.5 mph - N/A   Overcast
7:54 PM 30.0 °F 21.7 °F 19.9 °F 66% 30.28 in 10.0 mi West 9.2 mph - N/A   Overcast
8:50 PM 30.2 °F 21.3 °F 21.2 °F 69% 30.24 in 10.0 mi WSW 10.4 mph - N/A   Overcast
8:54 PM 30.0 °F 21.7 °F 21.0 °F 69% 30.29 in 10.0 mi West 9.2 mph - N/A   Overcast
9:54 PM 30.0 °F 21.1 °F 19.9 °F 66% 30.29 in 10.0 mi West 10.4 mph 18.4 mph N/A   Overcast
10:54 PM 30.0 °F 20.0 °F 19.9 °F 66% 30.30 in 10.0 mi West 12.7 mph - N/A   Overcast
11:54 PM 30.0 °F 21.7 °F 19.9 °F 66% 30.28 in 10.0 mi West 9.2 mph - N/A   Overcast